Wind_Speed
7 7 7 7 7 7 7 7 7 7 7 7 7 7 7 7 7 7 7 7 8 8 8 8 7 8 8 9 9 10 10 10 11 11 11 10 10 10 11 11 11 11 12
8 8 7 8 8 8 7 7 7 7 7 7 7 7 7 7 7 7 7 6 7 7 7 7 7 8 8 8 9 9 10 10 10 10 10 11 11 11 11 11 11 11 12
8 8 8 8 7 7 7 7 7 7 7 8 7 7 7 7 6 6 6 6 6 5 6 6 7 7 7 8 8 9 9 9 10 10 10 10 11 11 12 11 11 12 13
8 8 7 7 6 6 7 7 7 7 7 8 8 7 7 6 6 6 6 6 5 5 6 6 7 7 7 8 8 9 9 9 10 11 11 11 12 12 12 12 13 13 14
8 8 6 7 7 7 7 7 7 7 7 7 7 6 6 6 6 6 6 6 6 6 6 7 7 7 8 8 8 8 9 10 10 10 11 12 12 13 13 13 14 14 15
8 6 6 6 7 6 7 7 7 6 6 6 6 7 7 7 7 7 7 7 7 7 7 7 7 8 8 9 9 9 9 9 10 10 10 11 12 13 14 14 14 15 15
7 6 6 6 6 6 6 6 6 6 6 6 6 7 7 7 7 7 7 7 7 7 7 8 8 8 9 9 9 9 10 10 11 11 11 11 12 13 13 14 15 15 15
8 7 7 7 7 7 6 6 6 6 6 6 7 7 7 7 7 7 7 7 7 7 8 8 8 9 9 9 9 9 10 10 11 11 11 12 12 13 14 14 14 15 15
9 8 8 8 8 7 6 6 7 6 6 6 6 6 7 7 8 8 7 8 8 8 9 9 9 9 10 10 11 10 10 11 11 12 12 12 13 13 14 14 15 15 15
9 9 8 8 8 7 7 7 6 6 6 6 6 6 7 7 7 8 8 9 9 9 9 10 10 11 10 10 11 11 11 12 12 12 13 13 14 14 14 14 15 15 16
9 9 8 8 7 7 7 7 7 7 7 7 7 7 7 8 8 8 9 10 10 10 10 10 10 10 10 10 11 12 12 12 13 13 14 14 15 15 15 15 16 17 17
9 8 8 8 8 7 8 8 8 8 8 8 8 8 8 8 8 9 9 10 10 10 10 10 10 10 10 11 12 12 13 13 14 14 14 14 15 15 16 17 17 18 19
9 8 8 8 8 8 8 9 9 9 9 9 8 8 9 9 10 10 10 10 10 10 10 11 10 10 11 12 12 13 14 14 14 15 15 15 16 16 17 18 19 19 20
9 9 9 9 8 8 8 9 9 9 9 9 10 10 10 10 10 10 10 11 11 11 11 12 11 11 12 13 14 14 14 15 15 15 15 16 16 17 17 18 18 19 19
10 10 9 9 9 9 9 9 10 10 10 10 10 11 11 12 12 12 12 11 12 12 12 12 12 13 13 14 14 15 15 16 16 16 16 16 17 17 17 18 19 19 20
12 11 11 10 10 10 10 11 11 11 11 11 12 12 12 12 12 13 13 13 13 13 13 13 14 14 14 14 15 15 16 16 17 17 17 17 18 18 19 19 19 20 21
13 13 12 12 11 12 12 12 12 12 12 12 12 13 13 13 14 14 14 14 14 13 13 13 14 14 15 14 15 15 15 16 16 16 17 17 18 19 19 20 21 21 22
14 14 13 13 13 13 13 13 13 13 13 13 13 13 13 14 14 14 15 14 14 14 14 14 14 15 15 16 16 15 15 15 16 17 17 18 18 19 20 21 22 23 24
15 15 14 14 14 14 14 14 14 14 14 14 14 14 14 14 14 14 15 15 15 15 15 15 15 15 16 16 16 16 17 17 18 18 18 19 20 21 22 22 23 24 25
16 16 16 16 15 15 15 15 15 16 15 15 15 15 15 15 15 15 15 16 16 16 16 16 16 16 16 17 17 18 18 18 19 19 19 20 21 22 23 24 25 26 26
17 17 17 16 16 16 17 17 17 17 16 17 17 16 16 16 16 16 16 16 17 17 16 17 17 17 17 18 18 18 19 19 20 20 21 21 22 23 24 25 26 27 27
18 18 18 17 17 17 17 18 18 18 18 18 18 18 18 18 18 17 17 17 17 17 17 17 18 18 18 18 19 19 20 20 21 22 22 23 24 25 26 26 27 27 27
19 19 19 19 19 19 18 18 18 18 19 19 19 19 20 20 19 19 19 19 19 19 20 21 20 20 20 20 20 21 22 22 23 23 24 25 26 27 27 27 28 28 28
20 20 20 20 20 19 19 19 20 20 20 20 20 20 20 20 20 20 20 20 21 21 22 22 22 22 23 23 23 23 24 24 24 25 26 26 27 28 28 29 29 29 30
20 20 21 21 21 20 20 20 20 20 20 20 19 19 19 19 20 20 21 21 22 22 23 23 24 24 24 24 25 25 25 25 25 26 27 28 28 29 29 30 30 31 32
20 21 21 21 21 20 20 20 20 20 20 20 20 19 19 20 21 21 21 22 22 22 23 23 24 24 24 24 25 25 26 26 26 27 28 29 29 30 30 31 31 32 33
Wind_Direction
283 277 272 267 266 265 268 274 273 268 269 270 270 268 267 265 264 260 258 260 263 263 265 266 263 261 263 266 265 266 267 267 265 265 265 264 262 259 257 259 262 261 261
279 281 276 269 264 262 267 273 274 273 270 270 270 269 267 266 262 261 258 260 265 263 257 259 259 260 261 262 265 269 267 267 268 266 262 261 261 262 262 263 263 264 263
280 277 275 268 265 266 267 272 275 274 273 269 266 265 263 263 263 262 258 260 262 259 258 264 265 263 264 264 268 275 272 270 269 265 263 261 259 260 261 261 263 264 267
280 274 271 270 268 269 267 265 268 265 265 263 263 262 263 264 262 259 257 258 261 261 261 265 267 268 270 272 274 277 275 272 270 268 265 265 265 267 267 264 263 267 271
278 277 277 274 273 266 259 263 266 265 264 262 261 264 266 264 262 257 257 258 260 261 265 270 269 272 274 280 279 277 278 279 275 270 266 265 267 270 270 268 267 269 272
277 278 280 275 276 270 261 261 265 267 267 265 265 264 263 262 260 258 258 257 258 262 264 273 272 272 276 276 276 277 276 275 270 274 274 272 272 273 272 272 274 276 278
275 271 277 281 284 278 270 267 268 269 264 262 264 264 262 259 256 256 256 256 259 264 269 275 272 274 275 274 274 277 277 277 277 278 276 275 276 276 276 277 278 281 282
273 272 277 278 279 277 275 268 267 267 263 262 264 265 262 257 254 254 257 260 264 270 276 280 280 280 278 277 281 285 283 285 287 281 278 279 278 279 280 281 282 283 284
267 268 272 274 273 273 270 266 264 266 262 261 261 263 263 261 257 259 263 264 267 272 278 282 283 282 280 278 280 284 285 288 290 285 280 281 282 282 283 283 284 284 286
274 272 274 273 269 268 269 265 260 259 260 261 261 263 266 267 263 264 269 271 273 274 277 279 281 282 281 280 279 281 286 288 290 289 285 284 283 282 282 282 283 284 286
279 279 276 272 267 267 266 261 259 260 261 263 267 266 267 268 265 267 271 274 277 277 278 281 282 283 283 283 283 285 286 286 288 289 285 283 284 282 281 283 284 286 288
277 281 282 276 270 267 271 270 263 262 265 265 269 268 267 267 267 270 273 277 280 281 280 279 285 286 286 285 284 284 284 285 287 288 288 288 286 285 284 283 284 286 288
270 271 272 275 275 272 273 272 267 264 265 266 267 268 268 269 272 274 278 279 281 282 282 283 285 288 288 288 287 285 285 285 287 289 289 288 287 288 287 285 284 285 287
267 268 270 267 268 274 274 271 267 265 265 267 269 270 270 272 275 276 278 280 282 282 284 285 285 289 290 289 286 286 285 286 289 289 288 288 287 288 290 290 288 288 289
266 267 270 268 267 272 274 272 271 270 270 272 273 272 272 273 274 276 276 279 283 283 283 283 286 289 291 290 287 287 287 288 289 289 289 290 290 291 291 292 291 289 289
260 261 264 267 268 272 273 272 272 273 273 272 273 274 275 275 275 276 279 281 282 283 284 284 285 290 292 291 290 289 288 288 289 290 288 289 290 291 291 292 293 292 291
257 257 261 263 268 272 272 271 272 274 275 272 272 273 276 276 276 277 278 279 280 282 283 284 285 288 290 292 292 291 290 290 291 290 289 289 291 292 292 293 293 294 294
261 260 262 264 267 267 268 268 271 273 273 273 273 273 273 275 276 276 277 278 279 283 284 284 285 288 290 291 292 292 292 292 294 293 291 290 291 293 294 295 295 295 297
260 262 263 264 265 265 266 268 270 272 272 271 272 273 274 276 276 276 277 277 278 281 281 284 286 288 290 291 290 292 293 294 295 295 293 292 293 294 295 296 297 297 297
261 262 264 264 267 268 268 270 272 271 270 270 271 273 274 274 275 276 278 277 279 280 281 282 286 289 290 291 291 292 294 296 298 298 296 295 295 296 296 296 297 297 297
263 265 265 265 267 269 270 271 271 271 270 270 271 272 273 272 274 275 277 276 277 278 278 281 284 287 290 291 291 291 293 295 297 298 298 296 297 298 299 298 298 297 297
265 266 266 266 268 270 272 272 269 269 269 270 272 273 272 272 272 273 274 275 277 277 278 280 284 286 289 290 292 292 292 293 294 295 296 295 296 298 299 299 298 298 299
267 266 267 268 269 271 271 271 271 270 270 270 271 272 271 271 273 274 273 273 275 276 277 279 282 284 287 288 290 292 293 293 294 295 295 296 297 299 300 299 298 298 298
268 269 268 269 269 270 270 271 272 272 272 272 271 272 272 273 273 274 273 273 275 276 277 279 281 283 285 285 287 289 290 291 292 294 296 297 297 298 299 299 299 299 298
270 271 271 270 269 269 270 272 271 269 268 270 271 273 272 273 275 275 275 275 276 278 279 280 281 283 284 285 287 289 290 291 292 294 296 297 298 298 298 299 300 300 300
271 272 271 270 269 269 271 272 270 268 269 271 273 274 273 273 276 278 277 278 279 280 282 283 284 284 285 285 287 290 291 293 294 294 296 297 298 299 299 299 300 300 301
Height
5874 5874 5873 5872 5872 5872 5872 5871 5871 5871 5871 5870 5870 5869 5869 5869 5868 5868 5867 5867 5867 5867 5866 5866 5866 5866 5865 5865 5865 5865 5864 5864 5864 5864 5864 5863 5863 5863 5863 5863 5863 5862 5862
5873 5872 5872 5871 5871 5870 5870 5870 5869 5869 5869 5869 5868 5868 5867 5867 5867 5866 5866 5865 5865 5865 5864 5864 5864 5864 5864 5863 5863 5863 5862 5862 5862 5862 5861 5861 5861 5861 5861 5861 5860 5860 5860
5871 5870 5870 5869 5869 5869 5869 5868 5868 5868 5867 5867 5867 5866 5866 5866 5865 5865 5864 5864 5864 5863 5863 5863 5862 5862 5862 5861 5861 5860 5860 5860 5859 5859 5859 5859 5859 5859 5859 5858 5858 5858 5857
5869 5869 5868 5868 5867 5867 5867 5867 5867 5866 5866 5865 5865 5865 5864 5864 5864 5863 5863 5862 5862 5862 5861 5861 5861 5860 5860 5859 5859 5858 5857 5857 5857 5857 5856 5856 5856 5856 5856 5856 5855 5855 5855
5868 5867 5867 5866 5866 5865 5865 5865 5865 5865 5864 5864 5863 5863 5863 5863 5862 5862 5862 5861 5861 5860 5860 5859 5859 5858 5858 5857 5857 5856 5856 5855 5855 5854 5854 5854 5854 5854 5853 5853 5852 5852 5851
5866 5866 5865 5865 5864 5864 5864 5864 5863 5863 5863 5862 5862 5862 5861 5861 5861 5860 5860 5860 5859 5859 5858 5858 5857 5857 5856 5855 5855 5854 5853 5853 5852 5852 5851 5851 5851 5851 5850 5850 5849 5848 5848
5865 5864 5864 5863 5863 5863 5862 5862 5862 5861 5861 5861 5860 5860 5860 5860 5859 5859 5859 5858 5858 5857 5857 5856 5855 5854 5854 5853 5853 5852 5851 5851 5850 5850 5849 5849 5848 5848 5847 5846 5845 5845 5844
5863 5863 5862 5862 5862 5861 5861 5860 5860 5860 5859 5859 5859 5859 5859 5859 5858 5858 5857 5857 5856 5856 5855 5854 5853 5852 5851 5851 5850 5849 5849 5848 5848 5847 5846 5846 5845 5845 5844 5843 5842 5841 5840
5861 5861 5861 5860 5860 5860 5859 5859 5859 5859 5858 5857 5857 5857 5857 5857 5856 5856 5856 5855 5855 5854 5853 5852 5851 5850 5849 5848 5847 5847 5846 5846 5845 5845 5844 5843 5842 5841 5840 5839 5838 5838 5836
5859 5859 5859 5858 5858 5858 5857 5857 5857 5857 5856 5856 5856 5855 5855 5855 5855 5855 5854 5853 5853 5852 5851 5850 5849 5848 5847 5846 5845 5844 5844 5843 5843 5842 5841 5840 5839 5838 5837 5836 5835 5834 5833
5857 5857 5857 5856 5856 5856 5856 5855 5855 5855 5855 5854 5854 5853 5853 5853 5853 5852 5852 5851 5851 5850 5849 5848 5847 5846 5845 5844 5843 5842 5841 5841 5840 5839 5838 5837 5836 5834 5833 5832 5831 5830 5828
5855 5855 5854 5854 5854 5854 5854 5854 5853 5853 5853 5852 5852 5852 5851 5851 5850 5850 5850 5849 5848 5847 5846 5845 5844 5843 5842 5841 5840 5839 5839 5838 5837 5835 5834 5833 5831 5830 5829 5828 5827 5825 5824
5853 5852 5852 5852 5852 5852 5851 5851 5851 5851 5850 5850 5850 5850 5849 5849 5848 5848 5847 5846 5846 5845 5844 5843 5842 5841 5839 5838 5837 5836 5835 5834 5833 5832 5831 5829 5828 5826 5825 5823 5822 5821 5819
5850 5850 5850 5850 5850 5849 5849 5849 5849 5848 5848 5848 5847 5847 5847 5846 5845 5845 5844 5844 5843 5842 5841 5840 5839 5838 5837 5836 5834 5833 5832 5831 5830 5828 5827 5825 5824 5822 5821 5819 5817 5815 5814
5848 5848 5848 5847 5847 5847 5847 5847 5846 5846 5845 5845 5845 5844 5844 5843 5843 5842 5841 5841 5840 5839 5838 5837 5836 5835 5833 5832 5831 5830 5829 5827 5826 5824 5823 5821 5820 5818 5816 5814 5813 5811 5809
5845 5845 5845 5844 5844 5844 5844 5844 5844 5843 5843 5842 5842 5841 5841 5840 5839 5839 5838 5837 5837 5836 5835 5834 5832 5831 5830 5829 5827 5826 5825 5823 5822 5820 5819 5817 5815 5813 5812 5810 5808 5806 5804
5841 5841 5841 5841 5841 5841 5841 5841 5840 5840 5840 5839 5838 5838 5837 5837 5836 5835 5834 5834 5833 5832 5831 5830 5829 5828 5826 5825 5824 5822 5820 5819 5817 5816 5814 5813 5811 5809 5807 5805 5803 5801 5798
5837 5837 5837 5837 5837 5837 5837 5837 5837 5836 5836 5835 5835 5834 5834 5833 5832 5832 5831 5830 5829 5828 5828 5826 5825 5824 5823 5821 5820 5818 5816 5815 5813 5811 5810 5808 5806 5804 5802 5800 5798 5795 5793
5833 5833 5833 5833 5833 5833 5833 5833 5833 5832 5832 5831 5831 5830 5830 5829 5828 5828 5827 5826 5825 5824 5823 5822 5821 5820 5819 5817 5816 5814 5812 5810 5809 5807 5805 5803 5801 5799 5797 5794 5792 5789 5786
5829 5829 5829 5829 5829 5829 5829 5828 5828 5828 5827 5827 5826 5826 5825 5825 5824 5823 5823 5822 5821 5820 5819 5818 5817 5816 5814 5813 5811 5809 5808 5806 5804 5802 5800 5798 5796 5793 5791 5788 5785 5783 5780
5824 5824 5824 5824 5824 5824 5824 5823 5823 5823 5822 5822 5821 5821 5820 5820 5819 5819 5818 5818 5817 5816 5815 5814 5813 5811 5810 5808 5806 5804 5803 5801 5799 5797 5795 5792 5790 5788 5785 5782 5779 5775 5772
5818 5819 5819 5819 5819 5819 5818 5818 5818 5817 5817 5817 5816 5816 5815 5815 5814 5814 5813 5812 5812 5811 5810 5809 5808 5806 5805 5803 5801 5799 5797 5796 5794 5792 5789 5787 5784 5781 5778 5775 5772 5768 5765
5813 5813 5813 5813 5813 5813 5813 5812 5812 5811 5811 5811 5810 5810 5809 5809 5808 5808 5807 5807 5806 5805 5804 5803 5802 5801 5799 5798 5796 5794 5792 5790 5788 5785 5783 5780 5777 5774 5771 5767 5764 5761 5758
5806 5806 5806 5806 5806 5807 5806 5806 5806 5805 5805 5804 5804 5803 5803 5803 5802 5802 5801 5800 5800 5799 5798 5797 5796 5795 5793 5791 5789 5787 5785 5783 5781 5778 5775 5773 5770 5767 5763 5760 5756 5753 5750
5800 5800 5800 5800 5800 5800 5800 5799 5799 5799 5798 5798 5798 5797 5797 5797 5796 5795 5795 5794 5793 5792 5791 5790 5789 5787 5786 5784 5782 5781 5778 5776 5774 5771 5768 5765 5762 5759 5756 5752 5748 5745 5741
5793 5793 5793 5793 5793 5793 5793 5792 5792 5792 5792 5792 5792 5791 5791 5790 5790 5789 5788 5787 5786 5785 5784 5783 5782 5781 5779 5777 5775 5773 5771 5769 5767 5764 5761 5758 5755 5751 5748 5744 5740 5737 5733